[[{"header":{"parameterUnit":"m.s-1","parameterCategory":1,"la1":30.2991,"la2":30.254,"lo1":-89.0895,"lo2":-89.0444,"dy":0.0017,"dx":0.0017,"nx":28,"ny":28,"refTime":"2026-01-31T09:00:00:Z","depth":0,"parameterNumber":2,"parameterNumberName":"U-component_of_WINDS"},"data":[0,0,0,0,0,0,0,0,0,0,0,0,0,0,0,0,0,0,0,0,0,0,0,0,0,0,0,0,0,0,0,0,0,0,0,0,0,0,0,0,0,0,0,0,0,0,0,0,0,0,0,0,0,0,0,0,0,0,2.6023,2.6023,0,2.6025,2.6025,2.6025,2.5995,2.5994,2.5993,2.5993,2.5994,2.5995,2.5995,0,0,0,0,0,0,0,0,0,0,0,0,0,2.5994,2.5994,2.6023,2.6023,2.6023,2.6025,2.6025,2.6025,2.5995,2.5994,2.5993,2.5992,2.5994,2.5995,2.5996,0,0,0,0,0,0,0,0,0,0,0,0,0,2.6002,2.5995,2.6023,2.6008,2.6007,2.6025,2.6025,2.6025,2.5995,2.5994,2.5993,2.5992,2.5993,2.5994,2.5996,2.6027,0,0,2.5999,2.6,0,0,0,0,0,0,0,0,2.6002,2.6003,2.601,2.6009,2.6008,2.6008,2.6015,2.6026,2.5996,2.6,2.5993,2.5991,2.6,2.6,2.6003,2.6027,2.6027,2.5999,2.6,2.6001,2.6001,0,0,0,0,0,0,0,2.6001,2.6003,2.6024,2.6011,2.6009,2.6002,2.6002,2.6017,2.6006,2.5999,2.5997,2.5998,2.5999,2.6002,2.6003,2.6027,2.5999,2.6,2.6001,2.6002,2.6077,2.6079,0,0,0,0,0,0,2.6003,2.6003,2.6024,2.6024,2.6002,2.6003,2.6003,2.6009,2.6006,2.6005,2.5999,2.5996,2.6001,2.6002,2.6003,2.6039,2.6001,2.6002,2.6002,2.6076,2.6078,2.6079,0,0,0,0,0,0,2.6002,2.6005,2.6023,2.6013,2.6014,2.6005,2.6012,2.601,2.6013,2.6006,2.6004,2.6004,2.6,2.6001,2.6021,2.6039,2.6002,2.6003,2.6075,2.6077,2.6078,2.6112,0,0,0,0,0,0,2.6001,2.6005,2.6016,2.6013,2.6015,2.6042,2.6014,2.6011,2.6016,2.6013,2.601,2.6009,2.5999,2.602,2.6023,2.604,2.6004,2.6073,2.6075,2.6078,2.611,2.6115,2.612,0,0,0,0,0,2.6,2.6026,2.6017,2.602,2.603,2.6043,2.6044,2.6032,2.6017,2.6029,2.6024,2.6009,2.6037,2.6022,2.6025,2.6043,2.6072,2.6075,2.6078,2.6107,2.6114,2.612,0,0,0,0,0,0,2.603,2.6025,2.6015,2.604,2.6042,2.6038,2.6052,2.604,2.6046,2.6043,2.6028,2.6028,2.605,2.6049,2.6032,2.6073,2.6052,2.6055,2.6073,2.608,2.6085,2.6084,2.6005,0,0,0,0,0,2.604,2.6052,2.6046,2.6069,2.607,2.6061,2.6067,2.6058,2.6059,2.606,2.6056,2.6058,2.6067,2.6074,2.6082,2.611,2.6109,2.6124,2.6129,2.6133,2.6136,2.6151,2.6157,2.6089,2.6089,2.6089,0,0,2.606,2.6058,2.6066,2.6075,2.6075,2.6087,2.6062,2.6076,2.6084,2.6062,2.608,2.6078,2.6079,2.6104,2.6114,2.6103,2.6155,2.6137,2.6141,2.6141,2.6154,2.6161,2.6167,2.6091,2.609,2.609,0,0,2.6102,2.6102,2.6121,2.6122,2.6124,2.6118,2.6123,2.612,2.6118,2.6137,2.612,2.613,2.6147,2.6148,2.6151,2.6196,2.6181,2.6199,2.6225,2.624,2.6245,2.625,2.6265,2.627,2.6202,2.6202,2.6202,0,2.6126,2.6143,2.6132,2.6147,2.6151,2.6132,2.6151,2.6153,2.6157,2.616,2.6148,2.6168,2.6168,2.6192,2.6203,2.6206,2.6211,2.6198,2.6245,2.625,2.6254,2.6268,2.6274,2.6204,2.6204,2.6204,2.6203,0,2.6173,2.6186,2.6201,2.6205,2.6212,2.6228,2.622,2.6227,2.6218,2.6214,2.6233,2.6232,2.624,2.6246,2.6237,2.6269,2.6262,2.6248,2.6225,2.6263,2.6276,2.6281,2.6207,2.6206,2.6206,2.6205,0,0,2.6232,2.6231,2.6237,2.6239,2.624,2.6249,2.6266,2.6274,2.628,2.6284,2.6297,2.6313,2.63,2.6303,2.6295,2.6308,2.6342,2.6292,2.6292,2.6301,2.6377,2.6386,2.6393,2.6334,2.6335,2.6336,2.6376,0,2.6272,2.6299,2.629,2.6318,2.633,2.6313,2.6327,2.633,2.6326,2.6336,2.6332,2.6342,2.6325,2.6327,2.6339,2.6336,2.6357,2.6333,2.6345,2.6346,2.6344,2.64,2.6409,2.6448,2.6382,2.6382,2.6383,0,2.6321,2.6328,2.6357,2.6357,2.6362,2.6375,2.6381,2.6391,2.6393,2.639,2.6395,2.6384,2.64,2.6379,2.6401,2.6384,2.6389,2.6389,2.639,2.6389,2.6365,2.6399,2.646,2.6465,2.6391,2.6391,2.639,0,2.636,2.6377,2.6396,2.6399,2.6399,2.6409,2.6409,2.6411,2.6416,2.6423,2.6426,2.6434,2.6438,2.6445,2.6436,2.6422,2.6459,2.6438,2.6456,2.6457,2.6463,2.6463,2.6524,2.6469,2.6469,2.6469,2.6469,0,2.6405,2.6423,2.6414,2.6426,2.6446,2.6436,2.6456,2.6455,2.6457,2.6468,2.6454,2.6465,2.6454,2.6464,2.6458,2.6477,2.6479,2.6477,2.6475,2.6477,2.6477,2.6479,2.6475,2.6471,2.647,2.647,2.647,0,2.6451,2.6445,2.6465,2.6465,2.6465,2.648,2.6479,2.649,2.6487,2.6501,2.6504,2.6499,2.651,2.6503,2.6514,2.651,2.6534,2.6529,2.6533,2.6531,2.655,2.6548,2.6613,2.6621,2.6562,2.6563,2.6563,0,2.6479,2.6493,2.6494,2.6501,2.6502,2.6514,2.6519,2.6511,2.6517,2.6522,2.6532,2.6543,2.655,2.6569,2.6566,2.6574,2.6568,2.6591,2.6569,2.6572,2.6567,2.6566,2.6567,2.6595,2.6595,2.6596,2.6596,0,2.6529,2.6526,2.6535,2.6543,2.6551,2.6557,2.6562,2.6569,2.656,2.6568,2.658,2.6586,2.6598,2.6608,2.6615,2.6616,2.6604,2.6603,2.6608,2.661,2.6611,2.661,2.6543,2.6601,2.6601,2.66,2.66,2.66,2.6566,2.6577,2.658,2.6591,2.6594,2.6599,2.661,2.6608,2.6618,2.6627,2.6621,2.6635,2.6638,2.6647,2.6649,2.666,2.665,2.6657,2.6659,2.666,2.6662,2.6611,2.6661,2.6661,2.6661,2.6661,2.6661,0,2.6614,2.6616,2.6626,2.6634,2.6642,2.6632,2.6638,2.6645,2.6657,2.6661,2.6669,2.6683,2.6693,2.6691,2.67,2.6709,2.6704,2.6712,2.671,2.671,2.667,2.6665,2.6716,2.6716,2.6716,2.6716,2.6716,2.6716,2.664,2.6659,2.6657,2.6677,2.6679,2.6692,2.6696,2.6701,2.6704,2.672,2.6728,2.6727,2.6729,2.6738,2.6747,2.6747,2.675,2.6759,2.6756,2.6719,2.6713,2.6708,2.6703,2.676,2.6761,2.6795,2.6796,2.6796]},{"header":{"parameterUnit":"m.s-1","parameterCategory":1,"la1":30.2991,"la2":30.254,"lo1":-89.0895,"lo2":-89.0444,"dy":0.0017,"dx":0.0017,"nx":28,"ny":28,"refTime":"2026-01-31T09:00:00:Z","depth":0,"parameterNumber":3,"parameterNumberName":"V-component_of_WINDS"},"data":[0,0,0,0,0,0,0,0,0,0,0,0,0,0,0,0,0,0,0,0,0,0,0,0,0,0,0,0,0,0,0,0,0,0,0,0,0,0,0,0,0,0,0,0,0,0,0,0,0,0,0,0,0,0,0,0,0,0,-6.5088,-6.509,0,-6.5304,-6.5306,-6.5309,-6.5279,-6.5276,-6.5272,-6.5269,-6.5487,-6.5495,-6.5504,0,0,0,0,0,0,0,0,0,0,0,0,0,-6.4647,-6.4655,-6.5088,-6.509,-6.5093,-6.5303,-6.5306,-6.5309,-6.528,-6.5276,-6.5271,-6.5267,-6.5484,-6.5494,-6.5505,0,0,0,0,0,0,0,0,0,0,0,0,0,-6.4848,-6.4658,-6.5087,-6.5104,-6.5108,-6.5303,-6.5306,-6.531,-6.5281,-6.5276,-6.527,-6.5265,-6.548,-6.5493,-6.5507,-6.5698,0,0,-6.5549,-6.5554,0,0,0,0,0,0,0,0,-6.4837,-6.4864,-6.5099,-6.5103,-6.5108,-6.5259,-6.5231,-6.544,-6.5282,-6.5215,-6.5269,-6.5263,-6.5415,-6.5434,-6.5486,-6.5708,-6.5718,-6.555,-6.5558,-6.5564,-6.5568,0,0,0,0,0,0,0,-6.4823,-6.4855,-6.5173,-6.5102,-6.5108,-6.51,-6.5122,-6.527,-6.5342,-6.522,-6.5219,-6.5245,-6.5416,-6.5473,-6.5491,-6.5721,-6.5549,-6.5562,-6.557,-6.5575,-6.6111,-6.6117,0,0,0,0,0,0,-6.4805,-6.4844,-6.5166,-6.5179,-6.4956,-6.5112,-6.5137,-6.5216,-6.5341,-6.5354,-6.5249,-6.5243,-6.5452,-6.5475,-6.5498,-6.5731,-6.5564,-6.5577,-6.5585,-6.6105,-6.6112,-6.6119,0,0,0,0,0,0,-6.4796,-6.4834,-6.5157,-6.5011,-6.5052,-6.5125,-6.5214,-6.5223,-6.5279,-6.5362,-6.5375,-6.5294,-6.5449,-6.5479,-6.5649,-6.5738,-6.5583,-6.5595,-6.6098,-6.6107,-6.6116,-6.6197,0,0,0,0,0,0,-6.4783,-6.4831,-6.4905,-6.5013,-6.506,-6.5306,-6.5219,-6.5231,-6.5303,-6.5297,-6.5408,-6.5421,-6.5447,-6.5629,-6.5662,-6.5754,-6.5606,-6.609,-6.6102,-6.6113,-6.6187,-6.6208,-6.6226,0,0,0,0,0,-6.4768,-6.4919,-6.4909,-6.4948,-6.5154,-6.5311,-6.5337,-6.5365,-6.5311,-6.5385,-6.5439,-6.5417,-6.5723,-6.5646,-6.5684,-6.5781,-6.6085,-6.6099,-6.6112,-6.6178,-6.6204,-6.6225,0,0,0,0,0,0,-6.4818,-6.4933,-6.4924,-6.5114,-6.5203,-6.5306,-6.5401,-6.5391,-6.5497,-6.5486,-6.5515,-6.5541,-6.5713,-6.5763,-6.5677,-6.5973,-6.5896,-6.5918,-6.5933,-6.5958,-6.5977,-6.5962,-6.5617,0,0,0,0,0,-6.4851,-6.497,-6.5064,-6.5223,-6.5268,-6.5327,-6.5396,-6.541,-6.5503,-6.554,-6.5606,-6.5696,-6.5812,-6.5888,-6.5999,-6.6194,-6.6217,-6.6279,-6.6298,-6.6314,-6.6332,-6.6439,-6.6468,-6.6163,-6.6163,-6.6163,0,0,-6.4921,-6.4999,-6.5072,-6.5235,-6.5305,-6.5427,-6.5359,-6.549,-6.558,-6.5559,-6.5724,-6.5776,-6.5878,-6.6061,-6.6145,-6.6109,-6.6422,-6.6331,-6.6343,-6.6353,-6.6456,-6.6485,-6.651,-6.6172,-6.6171,-6.6169,0,0,-6.5111,-6.5182,-6.5323,-6.5395,-6.5503,-6.5541,-6.5575,-6.5679,-6.5713,-6.5879,-6.5866,-6.5973,-6.6173,-6.6246,-6.631,-6.6528,-6.6512,-6.6563,-6.6665,-6.6769,-6.6793,-6.6814,-6.6893,-6.692,-6.6581,-6.6582,-6.6582,0,-6.5184,-6.5368,-6.5396,-6.5529,-6.5601,-6.5589,-6.5732,-6.58,-6.5938,-6.5988,-6.5946,-6.6196,-6.6264,-6.6465,-6.6518,-6.657,-6.6609,-6.6551,-6.6788,-6.6809,-6.683,-6.6904,-6.6934,-6.6587,-6.6587,-6.6586,-6.6585,0,-6.5453,-6.558,-6.5681,-6.5816,-6.5899,-6.6036,-6.6084,-6.6165,-6.6172,-6.6214,-6.6383,-6.6464,-6.6592,-6.664,-6.6648,-6.6842,-6.6817,-6.6781,-6.6704,-6.6864,-6.6935,-6.6963,-6.6595,-6.6593,-6.6592,-6.659,0,0,-6.5681,-6.583,-6.5867,-6.5928,-6.6046,-6.6145,-6.6281,-6.6407,-6.6476,-6.6572,-6.6687,-6.6856,-6.6824,-6.6896,-6.6911,-6.7002,-6.717,-6.6955,-6.6958,-6.6993,-6.739,-6.7416,-6.7449,-6.716,-6.7166,-6.717,-6.7381,0,-6.5882,-6.6125,-6.6154,-6.6369,-6.6487,-6.6477,-6.6596,-6.6681,-6.6724,-6.6829,-6.6876,-6.6996,-6.6945,-6.6988,-6.7078,-6.7131,-6.725,-6.7116,-6.7267,-6.7272,-6.7242,-6.7486,-6.7515,-6.771,-6.7409,-6.7414,-6.7417,0,-6.615,-6.6255,-6.6482,-6.6585,-6.6635,-6.6742,-6.686,-6.6961,-6.7057,-6.7082,-6.7163,-6.7167,-6.7307,-6.7224,-6.7417,-6.7325,-6.7388,-6.7424,-6.7432,-6.7448,-6.7355,-6.7508,-6.7773,-6.7802,-6.7461,-6.7458,-6.7454,0,-6.6294,-6.6492,-6.6654,-6.6706,-6.683,-6.6905,-6.6959,-6.705,-6.7124,-6.7227,-6.7276,-6.7393,-6.7457,-6.7547,-6.7582,-6.7519,-6.7774,-6.7694,-6.7798,-6.7797,-6.7852,-6.7848,-6.8131,-6.7893,-6.7892,-6.7891,-6.7891,0,-6.6517,-6.6656,-6.672,-6.682,-6.6975,-6.7007,-6.716,-6.7211,-6.7292,-6.7401,-6.7399,-6.7501,-6.7541,-6.7649,-6.7677,-6.7832,-6.7861,-6.7885,-6.7891,-6.7886,-6.7883,-6.7928,-6.7915,-6.7899,-6.7898,-6.7896,-6.7895,0,-6.6704,-6.6752,-6.6928,-6.7031,-6.706,-6.717,-6.7258,-6.7354,-6.7395,-6.7533,-6.7567,-6.7633,-6.776,-6.7804,-6.7957,-6.7976,-6.8157,-6.8151,-6.8126,-6.8127,-6.8228,-6.8218,-6.855,-6.8595,-6.8326,-6.8329,-6.8331,0,-6.6843,-6.695,-6.7065,-6.7138,-6.7196,-6.7314,-6.739,-6.7425,-6.7504,-6.7621,-6.7703,-6.783,-6.7933,-6.8136,-6.8197,-6.8314,-6.8312,-6.842,-6.8329,-6.8321,-6.8314,-6.8307,-6.8318,-6.8437,-6.8439,-6.8442,-6.8443,0,-6.7085,-6.7104,-6.7214,-6.7333,-6.7424,-6.7519,-6.7611,-6.7671,-6.7719,-6.7808,-6.7939,-6.8019,-6.8177,-6.8302,-6.8423,-6.8478,-6.8469,-6.8472,-6.8502,-6.8498,-6.8479,-6.8491,-6.8172,-6.8464,-6.8462,-6.846,-6.8459,-6.8458,-6.7253,-6.7348,-6.7444,-6.7567,-6.764,-6.7726,-6.7821,-6.7876,-6.7986,-6.8118,-6.8131,-6.8272,-6.8364,-6.8526,-6.8586,-6.8696,-6.8666,-6.871,-6.8721,-6.8731,-6.874,-6.8461,-6.8718,-6.8718,-6.8717,-6.8717,-6.8716,0,-6.7495,-6.7556,-6.7669,-6.7799,-6.7895,-6.788,-6.798,-6.8062,-6.8187,-6.8274,-6.8376,-6.8526,-6.8648,-6.8719,-6.8841,-6.8915,-6.8914,-6.8946,-6.8941,-6.8954,-6.8759,-6.8721,-6.8945,-6.8945,-6.8945,-6.8945,-6.8944,-6.8944,-6.7633,-6.7793,-6.7823,-6.8019,-6.8079,-6.8218,-6.8277,-6.8357,-6.8427,-6.8595,-6.8697,-6.8742,-6.8823,-6.8951,-6.9062,-6.9079,-6.9124,-6.916,-6.9174,-6.8991,-6.8967,-6.8945,-6.8909,-6.9169,-6.9169,-6.936,-6.9361,-6.9363]}]]